This demonstration page uses our WeatherBlox Daily Observations layout. Learn more.

Left ArrowRight Arrow

39.12711, -84.51439

Hourly Observations for June 5, 2019

Temp ( °F °C ) Dew Point ( °F °C ) Humidity (%) Winds ( mph kmh ) Pressure ( in mb ) Visibility ( mi km ) Precip ( " mm )
12:53 am 00:53 Clear 64 17.8 60 15.6 87 87 Calm 29.91 1013 9 14 0.00 0.00
1:53 am 01:53 Mostly Cloudy 64 17.8 60 15.6 87 87 Calm 29.90 1013 9 14 0.00 0.00
2:53 am 02:53 Mostly Cloudy 64 17.8 61 16.1 90 90 Calm 29.90 1012 9 14 0.00 0.00
3:53 am 03:53 Mostly Cloudy 66 18.9 61 16.1 84 84 VRB 5 7 29.86 1011 9 14 0.00 0.00
4:03 am 04:03 Cloudy with Thunderstorms 66 18.9 62 16.7 87 87 N 3 6 29.88 1012 9 14 0.00 0.00
4:24 am 04:24 Cloudy with Nearby Thunderstorms 65 18.3 62 16.7 90 90 Calm 29.87 1012 9 14 0.00 0.03
4:40 am 04:40 Mostly Cloudy 66 18.9 63 17.2 90 90 SSW 5 7 29.86 1011 9 14 0.00 0.03
4:53 am 04:53 Mostly Cloudy 65 18.3 62 16.7 90 90 SW 6 9 29.85 1011 9 14 0.00 0.03
5:02 am 05:02 Mostly Cloudy with Nearby Thunderstorms 66 18.9 62 16.7 87 87 SW 6 9 29.85 1011 9 14 0.00 0.00
5:17 am 05:17 Mostly Cloudy with Light Rain 67 19.4 62 16.7 84 84 SSW 10 17 29.86 1011 7 11 0.01 0.25
5:28 am 05:28 Cloudy with Nearby Thunderstorms 66 18.9 62 16.7 87 87 S 7 11 29.85 1011 9 14 0.01 0.25
5:43 am 05:43 Cloudy with Light Rain 66 18.9 63 17.2 90 90 SSW 6 9 29.85 1011 9 14 0.01 0.25
5:53 am 05:53 Mostly Cloudy 65 18.3 63 17.2 93 93 SSW 7 11 29.85 1011 8 13 0.01 0.25
6:53 am 06:53 Cloudy with Light Rain 66 18.9 64 17.8 93 93 SE 6 9 29.86 1011 8 13 0.01 0.25
7:53 am 07:53 Mostly Sunny 67 19.4 65 18.3 93 93 Calm 29.86 1011 7 11 0.02 0.51
8:53 am 08:53 Mostly Cloudy with Light Rain 69 20.6 65 18.3 87 87 SSW 7 11 29.86 1011 8 13 0.00 0.03
9:53 am 09:53 Cloudy with Light Rain 71 21.7 67 19.4 87 87 SSW 9 15 29.83 1010 8 13 0.01 0.25
10:14 am 10:14 Cloudy 72 22.2 67 19.4 84 84 SSW 12 19 29.82 1010 7 11 0.00 0.03
10:31 am 10:31 Cloudy 72 22.2 66 18.9 82 82 SW 14 22 29.82 1010 7 11 0.00 0.03
10:53 am 10:53 Cloudy 72 22.2 67 19.4 84 84 SSW 12 19 29.83 1010 7 11 0.00 0.03
11:53 am 11:53 Mostly Cloudy 73 22.8 67 19.4 81 81 SSW 13 20 29.83 1010 8 13 0.00 0.00
12:53 pm 12:53 Mostly Cloudy 75 23.9 69 20.6 82 82 SSW 15 24 29.83 1010 8 13 0.00 0.00
1:53 pm 13:53 Cloudy 75 23.9 69 20.6 82 82 SSW 8 13 29.82 1010 7 11 0.00 0.00
2:53 pm 14:53 Cloudy 78 25.6 70 21.1 76 76 SW 7 11 29.80 1009 7 11 0.00 0.00
3:14 pm 15:14 Cloudy 79 26.1 71 21.7 77 77 SSW 10 17 29.79 1009 8 13 0.00 0.00
3:53 pm 15:53 Partly Cloudy 83 28.3 72 22.2 70 70 WSW 9 15 29.78 1009 8 13 0.00 0.00
4:53 pm 16:53 Mostly Cloudy 84 28.9 70 21.1 63 63 WSW 16 26 29.75 1007 9 14 0.00 0.00
5:53 pm 17:53 Mostly Sunny 85 29.4 71 21.7 63 63 WSW 7 11 29.73 1007 10 16 0.00 0.00
6:30 pm 18:30 Mostly Cloudy with Thunderstorms 80 26.7 70 21.1 71 71 SW 6 9 29.71 1006 9 14 0.00 0.00
6:53 pm 18:53 Mostly Cloudy with Thunderstorms 78 25.6 71 21.7 79 79 W 22 35 29.75 1008 3 5 0.04 1.02
7:03 pm 19:03 Mostly Cloudy with Strong Thunderstorms 72 22.2 67 19.4 84 84 WNW 15 24 29.78 1009 2 3 0.13 3.30
7:10 pm 19:10 Mostly Cloudy with Strong Thunderstorms 71 21.7 64 17.8 79 79 VRB 6 9 29.77 1008 1 1 0.47 11.94
7:18 pm 19:18 Mostly Cloudy with Thunderstorms 68 20 66 18.9 93 93 W 18 30 29.79 1009 2 3 0.50 12.70
7:25 pm 19:25 Mostly Cloudy with Thunderstorms 69 20.6 66 18.9 90 90 SW 17 28 29.81 1009 7 11 0.51 12.95
7:49 pm 19:49 Mostly Cloudy with Nearby Thunderstorms 68 20 66 19 94 94 undefined N/A 29.73 1007 8 13 0.52 13.21
7:53 pm 19:53 Cloudy with Rain 68 20 66 18.9 93 93 SE 15 24 29.73 1007 6 10 0.53 13.46
8:53 pm 20:53 Sunny 67 19.4 65 18.3 93 93 S 10 17 29.76 1008 10 16 0.01 0.25
9:53 pm 21:53 Clear 67 19.4 65 18.3 93 93 SSW 8 13 29.80 1009 10 16 0.00 0.00
10:53 pm 22:53 Clear 68 20 65 18.3 90 90 Calm 29.80 1009 10 16 0.00 0.00
11:53 pm 23:53 Clear 66 18.9 65 18.3 96 96 VRB 5 7 29.80 1009 10 16 0.00 0.00

Powered by AerisWeather